User: anonymous   Login
Location: Newark
(34.0111°N, 88.4892°W)
Time: 08:51:01
(UTC+00:00)
Language:

METEOR M2 - Orbit

View from above orbital plane
View from above orbital plane
View from above satellite
View from above satellite

Ground track
Ground track

The orbit data is extracted from the following two-line orbital elements,

1 40069U 14037A   20157.92254697 -.00000043 +00000-0 -30382-6 0  9994
2 40069 098.5031 195.8938 0005063 326.5199 033.5656 14.20672689306573
Epoch (UTC): 05 June 2020 22:08:28
Eccentricity: 0.0005063
inclination: 98.5031°
perigee height: 819 km
apogee height: 827 km
right ascension of ascending node: 195.8938°
argument of perigee: 326.5199°
revolutions per day: 14.20672689
mean anomaly at epoch: 33.5656°
orbit number at epoch: 30657

The dashed part of the orbit path shows where the satellite is in the earth's shadow,  

DLR